FW0689 Weather Reports


Display with metric or nautical units.
time (UTC)temp
F
wind
direction
speed
MPH
gust
MPH
rain 1hr
in
rain 24hr
in
rain mn
in
humidity
%
barometer
mb
20260508100712 57 99 0.0 0.0 0.00 0.00 0.00 43 1024.0
20260508094711 57 101 0.0 0.0 0.00 0.00 0.00 44 1024.0
20260508093712 56 78 0.0 0.0 0.00 0.00 0.00 44 1024.2
20260508092713 56 92 0.0 0.0 0.00 0.00 0.00 43 1024.1
20260508091811 56 83 0.0 0.0 0.00 0.00 0.00 42 1024.3
20260508085912 56 96 0.0 0.0 0.00 0.00 0.00 42 1024.3
20260508083912 54 80 0.0 0.0 0.00 0.00 0.00 40 1024.3
20260508082911 53 108 0.0 0.0 0.00 0.00 0.00 40 1024.4
20260508082010 53 109 0.0 0.0 0.00 0.00 0.00 39 1024.3
20260508081011 53 109 0.0 0.0 0.00 0.00 0.00 39 1024.3
20260508075012 53 124 0.0 0.0 0.00 0.00 0.00 39 1024.3
20260508074110 53 128 0.0 0.0 0.00 0.00 0.00 39 1024.4
20260508073112 53 112 0.0 0.0 0.00 0.00 0.00 38 1024.4
20260508071112 50 105 0.0 0.0 0.00 0.00 0.00 38 1024.5
20260508071012 50 96 0.0 0.0 0.00 0.00 0.00 38 1024.3
20260508070013 49 97 0.0 0.0 0.00 0.00 0.00 38 1024.3
20260508065012 49 97 0.0 0.0 0.00 0.00 0.00 38 1024.2
20260508064011 48 91 0.0 0.0 0.00 0.00 0.00 39 1024.1
20260508063012 47 94 0.0 0.0 0.00 0.00 0.00 39 1024.0
20260508062012 47 100 0.0 0.0 0.00 0.00 0.00 39 1024.0
20260508061111 46 93 0.0 0.0 0.00 0.00 0.00 40 1023.8
20260508060111 45 99 0.0 0.0 0.00 0.00 0.00 40 1023.7
20260508055126 44 67 0.0 0.0 0.00 0.00 0.00 40 1023.8
20260508054110 44 67 0.0 0.0 0.00 0.00 0.00 41 1023.7
20260508053112 44 67 0.0 0.0 0.00 0.00 0.00 40 1023.7
20260508052112 44 90 0.0 0.0 0.00 0.00 0.00 41 1023.8
20260508051112 44 72 0.0 0.0 0.00 0.00 0.00 41 1023.6
20260508050113 43 90 0.0 0.0 0.00 0.00 0.00 41 1023.4
20260508044309 40 90 0.0 0.0 0.00 0.00 0.00 42 1023.3
20260508043312 39 90 0.0 0.0 0.00 0.00 0.00 42 1023.2
20260508042312 39 90 0.0 0.0 0.00 0.00 0.00 42 1023.1
20260508041311 39 90 0.0 0.0 0.00 0.00 0.00 42 1023.1
20260508035311 40 90 0.0 0.0 0.00 0.00 0.00 42 1023.1
20260508034311 40 90 0.0 0.0 0.00 0.00 0.00 42 1022.9
20260508033410 40 90 0.0 0.0 0.00 0.00 0.00 42 1022.9
20260508032412 41 90 0.0 0.0 0.00 0.00 0.00 42 1022.8
20260508031413 41 67 0.0 0.0 0.00 0.00 0.00 42 1022.8
20260508025511 41 67 0.0 0.0 0.00 0.00 0.00 42 1022.8
20260508024511 41 67 0.0 0.0 0.00 0.00 0.00 42 1022.9
20260508023511 41 90 0.0 0.0 0.00 0.00 0.00 42 1022.9
20260508022512 41 67 0.0 0.0 0.00 0.00 0.00 42 1022.9
20260508021512 41 67 0.0 0.0 0.00 0.00 0.00 42 1022.9
20260508020512 40 67 0.0 0.0 0.00 0.00 0.00 42 1022.9
20260508015511 39 67 0.0 0.0 0.00 0.00 0.00 42 1022.9
20260508014511 39 67 0.0 0.0 0.00 0.00 0.00 42 1022.9
20260508013610 39 67 0.0 0.0 0.00 0.00 0.00 42 1022.9
20260508011610 38 67 0.0 0.0 0.00 0.00 0.00 42 1022.9
20260508005612 39 67 0.0 0.0 0.00 0.00 0.00 42 1023.0
20260508004711 39 67 0.0 0.0 0.00 0.00 0.00 42 1023.0
20260508003710 39 67 0.0 0.0 0.00 0.00 0.00 42 1023.1
20260508001712 40 67 0.0 0.0 0.00 0.00 0.00 42 1023.2
20260507235812 41 67 0.0 0.0 0.00 0.00 0.00 41 1023.1
20260507234811 42 67 0.0 0.0 0.00 0.00 0.00 41 1023.1
20260507233812 42 67 0.0 0.0 0.00 0.00 0.00 41 1023.0
20260507232011 42 67 0.0 0.0 0.00 0.00 0.00 40 1022.9
20260507230013 42 67 0.0 0.0 0.00 0.00 0.00 41 1023.1
20260507225012 42 67 0.0 0.0 0.00 0.00 0.00 41 1023.1
20260507224012 42 67 0.0 0.0 0.00 0.00 0.00 41 1023.1
20260507223025 42 90 0.0 0.0 0.00 0.00 0.00 41 1023.1
20260507222013 43 90 0.0 0.0 0.00 0.00 0.00 41 1023.1
20260507215118 43 90 0.0 0.0 0.00 0.00 0.00 41 1022.9
20260507214137 43 90 0.0 0.0 0.00 0.00 0.00 41 1023.0
20260507213223 44 90 0.0 0.0 0.00 0.00 0.00 41 1022.9
20260507212319 44 90 0.0 0.0 0.00 0.00 0.00 40 1022.9
20260507210320 45 67 0.0 0.0 0.00 0.00 0.00 39 1022.9
20260507203321 46 90 0.0 0.0 0.00 0.00 0.00 40 1022.8
20260507202323 46 90 0.0 0.0 0.00 0.00 0.00 40 1022.9
20260507201323 47 79 0.0 0.0 0.00 0.00 0.00 40 1022.7
20260507200320 47 88 0.0 0.0 0.00 0.00 0.00 40 1022.6
20260507195321 48 90 0.0 0.0 0.00 0.00 0.00 40 1022.4
20260507194323 48 88 0.0 0.0 0.00 0.00 0.00 41 1022.5
20260507193320 48 92 0.0 0.0 0.00 0.00 0.00 41 1022.4
20260507193222 48 87 0.0 0.0 0.00 0.00 0.00 41 1022.4
20260507185321 50 94 0.0 0.0 0.00 0.00 0.00 41 1022.0
20260507184320 51 90 0.0 0.0 0.00 0.00 0.00 41 1022.0
20260507183321 51 101 0.0 0.0 0.00 0.00 0.00 41 1022.0
20260507182320 52 96 0.0 0.0 0.00 0.00 0.00 42 1021.9
20260507180518 53 107 0.0 0.0 0.00 0.00 0.00 42 1021.8
20260507174619 53 93 0.0 0.0 0.00 0.00 0.00 42 1021.7
20260507173621 53 101 0.0 0.0 0.00 0.00 0.00 42 1021.7
20260507172621 54 101 0.0 0.0 0.00 0.00 0.00 42 1021.6
20260507171620 55 91 0.0 0.0 0.00 0.00 0.00 43 1021.5
20260507170719 55 82 0.0 0.0 0.00 0.00 0.00 43 1021.5
20260507165720 56 90 0.0 0.0 0.00 0.00 0.00 44 1021.3
20260507164722 56 85 0.0 0.0 0.00 0.00 0.00 44 1021.4
20260507163721 57 95 0.0 0.0 0.00 0.00 0.00 44 1021.1
20260507162721 57 80 0.0 0.0 0.00 0.00 0.00 44 1021.1
20260507161819 57 104 0.0 0.0 0.00 0.00 0.00 45 1021.1
20260507160820 58 88 0.0 0.0 0.00 0.00 0.00 44 1020.9
20260507155821 59 60 0.0 0.0 0.00 0.00 0.00 44 1020.8
20260507154919 59 80 0.0 0.0 0.00 0.00 0.00 44 1020.8
20260507153919 59 89 0.0 0.0 0.00 0.00 0.00 43 1020.8
20260507152918 60 82 0.0 0.0 0.00 0.00 0.00 42 1020.7
20260507151920 60 46 0.0 0.0 0.00 0.00 0.00 41 1020.7
20260507150921 60 44 0.0 0.0 0.00 0.00 0.00 40 1020.6
20260507145921 61 70 0.0 0.0 0.00 0.00 0.00 40 1020.6
20260507144938 61 46 0.0 0.0 0.00 0.00 0.00 42 1020.5
20260507144022 61 7 0.0 0.0 0.00 0.00 0.00 41 1020.5
20260507143119 61 29 0.0 0.0 0.00 0.00 0.00 43 1020.6
20260507142121 61 38 0.0 0.0 0.00 0.00 0.00 43 1020.6
20260507141119 60 22 0.0 0.0 0.00 0.00 0.00 43 1020.6
20260507140119 59 30 0.0 0.0 0.00 0.00 0.00 44 1020.7
20260507135219 59 360 0.0 0.0 0.00 0.00 0.00 44 1020.6
20260507134219 59 6 0.0 0.0 0.00 0.00 0.00 43 1020.6
20260507132320 60 26 0.0 0.0 0.00 0.00 0.00 43 1020.6
20260507130421 59 18 0.0 0.0 0.00 0.00 0.00 43 1020.6
20260507125421 60 52 0.0 0.0 0.00 0.00 0.00 43 1020.6
20260507124420 59 113 0.0 0.0 0.00 0.00 0.00 42 1020.4
20260507123421 60 88 0.0 0.0 0.00 0.00 0.00 41 1020.6
20260507122519 62 38 0.0 0.0 0.00 0.00 0.00 40 1020.5
20260507121520 62 11 0.0 0.0 0.00 0.00 0.00 41 1020.6
20260507120523 63 56 0.0 0.0 0.00 0.00 0.00 41 1020.6
20260507115619 62 34 0.0 0.0 0.00 0.00 0.00 43 1020.6
20260507114718 61 17 0.0 0.0 0.00 0.00 0.00 43 1020.6
20260507113722 61 59 0.0 0.0 0.00 0.00 0.00 43 1020.6
20260507113620 61 66 0.0 0.0 0.00 0.00 0.00 43 1020.6
20260507112620 61 5 0.0 0.0 0.00 0.00 0.00 44 1020.6
20260507111720 60 4 0.0 0.0 0.00 0.00 0.00 44 1020.6
20260507110722 60 93 0.0 0.0 0.00 0.00 0.00 44 1020.8
20260507105721 61 3 0.0 0.0 0.00 0.00 0.00 43 1020.6
20260507103736 59 25 0.0 0.0 0.00 0.00 0.00 43 1020.8
20260507102820 59 20 0.0 0.0 0.00 0.00 0.00 42 1020.7